Date String (YYYY-MM-DD hh:mm:ss) UTC,Instrument flags,absolute air pressure of the measurement (hPa),sample flow rate (lpm),inlet stack bypass flow (lpm),air temperature of the measurement (°C),ambient temperature measured by the external sensor (°C),aerosol sample conditioner tube jacket temperature (°C),OPC LED temperature (°C),internal box temperature (°C),relative humidity of the measurement (%),span deviation,mass concentration of particles derived from Lorenz-Mie calculation of OPC scattering (μg/m³),mass concentration of particles derived from Lorenz-Mie calculation of OPC scattering (μg/m³),mass concentration of particles derived from Lorenz-Mie calculation of OPC scattering (μg/m³)
DateTimeUTC,F1_M11,P_M11,Q1_M11,Q2_M11,T1_M11,T2_M11,T3_M11,T4_M11,T5_M11,U1_M11,ZSPAN_M11,X2_M11,X0_M11,X1_M11
2024-02-13 09:00:00,SystemResetWarning,0825.7,5.00,000.00,018.3,017.6,000.0,026.8,020.0,12.6,0000.0,0004.83,0008.94,0004.54
2024-02-13 09:01:00,SystemResetWarning,0825.7,5.00,000.00,018.3,017.6,000.0,026.8,020.0,13.3,0000.0,0004.58,0008.20,0004.29
2024-02-13 09:02:00,SystemResetWarning,0825.7,5.00,000.00,018.3,017.6,000.0,026.8,020.0,13.6,0000.0,0004.31,0007.96,0004.03
2024-02-13 09:03:00,SystemResetWarning,0825.7,5.01,000.00,018.3,017.6,000.0,026.9,020.0,13.5,0000.0,0004.12,0007.83,0003.83
2024-02-13 09:04:00,SystemResetWarning,0825.7,5.00,000.00,018.3,017.6,000.0,026.9,020.0,13.3,0000.0,0004.02,0007.51,0003.74
2024-02-13 09:05:00,SystemResetWarning,0825.7,4.99,000.00,018.3,017.6,000.0,026.9,020.0,12.8,0000.0,0003.90,0005.99,0003.65
2024-02-13 09:06:00,SystemResetWarning,0825.6,4.99,000.00,018.3,017.6,000.0,026.9,020.0,12.9,0000.0,0003.72,0005.54,0003.50
2024-02-13 09:07:00,SystemResetWarning,0825.6,5.01,000.00,018.3,017.6,000.0,026.8,020.0,12.7,0000.0,0003.51,0005.14,0003.31
2024-02-13 09:08:00,SystemResetWarning,0825.6,5.00,000.00,018.3,017.6,000.0,026.8,020.0,12.3,0000.0,0003.41,0005.04,0003.21
2024-02-13 09:09:00,SystemResetWarning,0825.6,4.99,000.00,018.3,017.6,000.0,026.9,020.0,12.5,0000.0,0003.39,0005.36,0003.19
2024-02-13 09:10:00,SystemResetWarning,0825.6,4.99,000.00,018.3,017.6,000.0,026.8,020.0,12.6,0000.0,0003.51,0005.61,0003.29
2024-02-13 09:11:00,SystemResetWarning,0825.6,5.02,000.00,018.3,017.6,000.0,026.8,020.0,12.6,0000.0,0003.56,0005.69,0003.33
2024-02-13 09:12:00,SystemResetWarning,0825.6,4.99,000.00,018.3,017.6,000.0,026.9,020.0,12.7,0000.0,0003.54,0005.74,0003.30
2024-02-13 09:13:00,SystemResetWarning,0825.6,4.99,000.00,018.3,017.6,000.0,026.8,020.0,12.8,0000.0,0003.57,0006.03,0003.32
2024-02-13 09:14:00,SystemResetWarning,0825.4,5.00,000.00,018.3,017.6,000.0,026.8,020.0,12.5,0000.0,0003.48,0005.73,0003.24
2024-02-13 09:15:00,SystemResetWarning,0825.5,5.00,000.00,018.3,017.6,000.0,026.8,020.0,12.5,0000.0,0003.29,0005.31,0003.00
2024-02-13 09:16:00,SystemResetWarning,0825.5,5.00,000.00,018.3,017.6,000.0,026.8,020.0,12.6,0000.0,0003.13,0004.97,0002.71
2024-02-13 09:17:00,SystemResetWarning,0825.6,5.00,000.00,018.3,017.6,000.0,026.9,020.0,12.3,0000.0,0003.10,0004.93,0002.67
2024-02-13 09:18:00,SystemResetWarning,0825.5,5.02,000.00,018.3,017.6,000.0,026.9,020.0,12.1,0000.0,0003.10,0004.94,0002.68
2024-02-13 09:19:00,SystemResetWarning,0825.5,5.00,000.00,018.3,017.6,000.0,026.8,020.0,12.3,0000.0,0002.93,0004.67,0002.46
2024-02-13 09:20:00,SystemResetWarning,0825.5,4.99,000.00,018.3,017.6,000.0,026.8,020.0,12.4,0000.0,0002.66,0003.91,0002.21
2024-02-13 09:21:00,SystemResetWarning,0825.5,4.99,000.00,018.3,017.6,000.0,026.8,020.0,12.7,0000.0,0002.43,0003.64,0001.98
2024-02-13 09:22:00,SystemResetWarning,0825.5,5.00,000.00,018.3,017.6,000.0,026.8,020.0,12.6,0000.0,0002.26,0003.38,0001.83
2024-02-13 09:23:00,SystemResetWarning,0825.6,5.00,000.00,018.3,017.6,000.0,026.8,020.0,12.7,0000.0,0002.23,0004.51,0001.80
2024-02-13 09:24:00,SystemResetWarning,0825.5,5.01,000.00,018.3,017.6,000.0,026.8,020.0,12.5,0000.0,0002.11,0004.20,0001.68
2024-02-13 09:25:00,SystemResetWarning,0825.5,5.00,000.00,018.3,017.6,000.0,026.9,020.0,12.4,0000.0,0002.01,0004.07,0001.58
2024-02-13 09:26:00,SystemResetWarning,0825.4,4.99,000.00,018.3,017.6,000.0,026.9,020.0,12.7,0000.0,0001.97,0004.00,0001.53
2024-02-13 09:27:00,SystemResetWarning,0825.4,4.99,000.00,018.3,017.6,000.0,026.8,020.0,12.6,0000.0,0001.93,0004.02,0001.47
2024-02-13 09:28:00,SystemResetWarning,0825.4,5.00,000.00,018.3,017.6,000.0,026.8,020.0,12.6,0000.0,0001.85,0004.02,0001.40
2024-02-13 09:29:00,SystemResetWarning,0825.4,5.01,000.00,018.3,017.6,000.0,026.8,020.0,11.7,0000.0,0001.77,0003.94,0001.31
2024-02-13 09:30:00,SystemResetWarning,0825.4,5.00,000.00,018.3,017.6,000.0,026.8,020.0,12.1,0000.0,0001.62,0003.71,0001.21
2024-02-13 09:31:00,SystemResetWarning,0825.4,5.01,000.00,018.3,017.6,000.0,026.8,020.0,12.2,0000.0,0001.49,0003.53,0001.11
2024-02-13 09:32:00,SystemResetWarning,0825.4,5.00,000.00,018.3,017.6,000.0,026.8,020.0,12.2,0000.0,0001.45,0003.44,0001.08
2024-02-13 09:33:00,SystemResetWarning,0825.4,5.00,000.00,018.3,017.6,000.0,026.8,020.0,12.1,0000.0,0001.43,0004.35,0001.07
2024-02-13 09:34:00,SystemResetWarning,0825.4,4.99,000.00,018.3,017.7,000.0,026.8,020.0,11.8,0000.0,0001.36,0003.26,0001.03
2024-02-13 09:35:00,SystemResetWarning,0825.4,4.99,000.00,018.3,017.7,000.0,026.8,020.0,11.5,0000.0,0001.31,0003.40,0001.02
2024-02-13 09:36:00,SystemResetWarning,0825.4,5.00,000.00,018.3,017.7,000.0,026.8,020.0,11.4,0000.0,0001.32,0003.56,0001.01
2024-02-13 09:37:00,SystemResetWarning,0825.4,5.00,000.00,018.3,017.7,000.0,026.8,020.0,11.4,0000.0,0001.29,0003.50,0001.01
2024-02-13 09:38:00,SystemResetWarning,0825.4,5.00,000.00,018.3,017.7,000.0,026.8,020.0,11.8,0000.0,0001.25,0003.48,0000.99
2024-02-13 09:39:00,SystemResetWarning,0825.4,5.00,000.00,018.3,017.7,000.0,026.8,020.0,11.8,0000.0,0001.24,0003.46,0000.97
2024-02-13 09:40:00,SystemResetWarning,0825.3,5.00,000.00,018.3,017.7,000.0,026.8,020.0,11.8,0000.0,0001.19,0003.40,0000.93
2024-02-13 09:41:00,SystemResetWarning,0825.3,5.00,000.00,018.3,017.7,000.0,026.8,020.0,11.8,0000.0,0001.17,0003.41,0000.89
2024-02-13 09:42:00,SystemResetWarning,0825.3,4.99,000.00,018.3,017.7,000.0,026.8,020.0,11.8,0000.0,0001.19,0003.82,0000.87
2024-02-13 09:43:00,SystemResetWarning,0825.4,4.99,000.00,018.3,017.7,000.0,026.8,020.0,12.0,0000.0,0001.15,0003.79,0000.86
2024-02-13 09:44:00,SystemResetWarning,0825.4,5.01,000.00,018.3,017.7,000.0,026.8,020.0,14.4,0000.0,0001.10,0002.73,0000.83
2024-02-13 09:45:00,SystemResetWarning,0825.5,5.00,000.00,018.3,017.7,000.0,026.8,020.0,14.8,0000.0,0001.09,0002.56,0000.81
2024-02-13 09:46:00,SystemResetWarning,0825.5,5.00,000.00,018.3,017.7,000.0,026.8,020.0,14.5,0000.0,0001.09,0002.35,0000.80
2024-02-13 09:47:00,SystemResetWarning,0825.5,4.99,000.00,018.3,017.7,000.0,026.8,020.0,14.5,0000.0,0001.09,0002.09,0000.80
2024-02-13 09:48:00,SystemResetWarning,0825.6,5.00,000.00,018.3,017.7,000.0,026.8,020.0,14.8,0000.0,0001.08,0002.09,0000.79
2024-02-13 09:49:00,SystemResetWarning,0825.6,5.00,000.00,018.3,017.7,000.0,026.8,020.0,15.7,0000.0,0001.05,0002.09,0000.76
2024-02-13 09:50:00,SystemResetWarning,0825.6,5.00,000.00,018.3,017.7,000.0,026.8,020.0,15.9,0000.0,0001.28,0002.52,0001.00
2024-02-13 09:51:00,SystemResetWarning,0825.6,5.01,000.00,018.3,017.7,000.0,026.8,020.0,15.5,0000.0,0002.35,0004.20,0002.01
2024-02-13 09:52:00,SystemResetWarning,0825.6,5.00,000.00,018.3,017.7,000.0,026.8,020.0,15.4,0000.0,0003.29,0005.45,0003.02
2024-02-13 09:53:00,SystemResetWarning,0825.6,5.00,000.00,018.3,017.7,000.0,026.8,020.0,15.1,0000.0,0003.80,0006.26,0003.57
2024-02-13 09:54:00,SystemResetWarning,0825.6,5.00,000.00,018.3,017.7,000.0,026.8,020.0,15.4,0000.0,0004.40,0007.26,0004.15
2024-02-13 09:55:00,SystemResetWarning,0825.7,4.99,000.00,018.3,017.7,000.0,026.8,020.0,15.8,0000.0,0005.21,0009.20,0004.90
2024-02-13 09:56:00,SystemResetWarning,0825.6,5.00,000.00,018.3,017.7,000.0,026.8,020.0,15.7,0000.0,0006.07,0011.47,0005.72
2024-02-13 09:57:00,SystemResetWarning,0825.6,5.01,000.00,018.3,017.7,000.0,026.8,020.0,15.2,0000.0,0006.95,0013.57,0006.56
2024-02-13 09:58:00,SystemResetWarning,0825.6,5.00,000.00,018.3,017.7,000.0,026.8,020.0,13.8,0000.0,0007.73,0014.76,0007.27
2024-02-13 09:59:00,SystemResetWarning,0825.5,5.00,000.00,018.3,017.7,000.0,026.8,020.0,15.0,0000.0,0008.52,0015.94,0008.00
